User: anonymous   Login
Location: Starry Hill Observatory
(46.8582°N, 122.3590°W)
Time: 22:25:59
(UTC-08:00)
Language:

Cosmos 1300 Rocket - Orbit

View from above orbital plane
View from above orbital plane
View from above satellite
View from above satellite

Ground track
Ground track

The orbit data is extracted from the following two-line orbital elements,

1 12786U 81082B   14354.82025472  .00001024  00000-0  11904-3 0   716
2 12786 082.4897 104.6199 0017788 021.1651 339.0296 14.84300636799890
Epoch (UTC): 20 December 2014 19:41:10
Eccentricity: 0.0017788
inclination: 82.4897°
perigee height: 603 km
apogee height: 628 km
right ascension of ascending node: 104.6199°
argument of perigee: 21.1651°
revolutions per day: 14.84300636
mean anomaly at epoch: 339.0296°
orbit number at epoch: 79989

The dashed part of the orbit path shows where the satellite is in the earth's shadow,  

DLR